Date String (YYYY-MM-DD hh:mm:ss) UTC,Instrument flags,Ambient pressure (hPa),Sample flow (lpm),Bypass flow (lpm),Sample temperature (°C),Ambient temperature (°C),ASC tube jacket temperature (°C),LED temperature (°C),Box temperature (°C),Sample RH (%),Span deviation,Mass concentration (μg/m³),Mass concentration (μg/m³),Mass concentration (μg/m³)
DateTimeUTC,F1_M11,P_M11,Q1_M11,Q2_M11,T1_M11,T2_M11,T3_M11,T4_M11,T5_M11,U1_M11,ZSPAN_M11,X0_M11,X2_M11,X1_M11
2022-06-11 07:00:00,,0824.5,5.01,0.00,29.5,28.7,00.0,38.3,31.4,15.9,0000.0,0015.87,0005.79,0003.62
2022-06-11 07:01:00,,0824.5,5.00,0.00,29.5,28.7,00.0,38.3,31.5,15.7,0000.0,0015.56,0005.77,0003.64
2022-06-11 07:02:00,,0824.5,5.00,0.00,29.5,28.8,00.0,38.3,31.5,15.6,0000.0,0015.12,0005.82,0003.66
2022-06-11 07:03:00,,0824.6,5.00,0.00,29.5,28.4,00.0,38.3,31.4,15.7,0000.0,0015.28,0005.93,0003.69
2022-06-11 07:04:00,,0824.4,4.99,0.00,29.5,27.6,00.0,38.2,31.2,15.8,0000.0,0016.15,0006.01,0003.71
2022-06-11 07:05:00,,0824.5,5.00,0.00,29.4,27.3,00.0,38.2,31.1,15.5,0000.0,0016.35,0006.09,0003.74
2022-06-11 07:06:00,,0824.5,5.00,0.00,29.3,27.3,00.0,38.2,31.0,15.4,0000.0,0015.94,0006.00,0003.74
2022-06-11 07:07:00,,0824.4,4.99,0.00,29.3,27.3,00.0,38.2,31.0,15.5,0000.0,0015.62,0005.91,0003.73
2022-06-11 07:08:00,,0824.5,4.99,0.00,29.2,27.4,00.0,38.2,31.0,15.5,0000.0,0015.54,0005.86,0003.72
2022-06-11 07:09:00,,0824.5,5.01,0.00,29.2,27.5,00.0,38.2,31.0,15.5,0000.0,0016.03,0005.84,0003.69
2022-06-11 07:10:00,,0824.5,5.00,0.00,29.2,27.7,00.0,38.2,31.1,15.4,0000.0,0016.72,0005.83,0003.68
2022-06-11 07:11:00,,0824.4,5.00,0.00,29.2,27.8,00.0,38.2,31.1,15.4,0000.0,0016.64,0005.79,0003.67
2022-06-11 07:12:00,,0824.5,5.00,0.00,29.2,27.9,00.0,38.1,31.1,15.5,0000.0,0017.24,0005.76,0003.65
2022-06-11 07:13:00,,0824.4,5.00,0.00,29.2,28.0,00.0,38.1,31.1,15.6,0000.0,0017.19,0005.78,0003.63
2022-06-11 07:14:00,,0824.4,4.99,0.00,29.2,28.1,00.0,38.1,31.1,15.6,0000.0,0017.02,0005.78,0003.62
2022-06-11 07:15:00,,0824.5,5.00,0.00,29.3,28.1,00.0,38.1,31.2,15.6,0000.0,0016.29,0005.75,0003.62
2022-06-11 07:16:00,,0824.5,5.00,0.00,29.3,28.2,00.0,38.2,31.2,15.7,0000.0,0015.69,0005.66,0003.60
2022-06-11 07:17:00,,0824.5,5.00,0.00,29.3,28.3,00.0,38.2,31.2,15.7,0000.0,0015.80,0005.72,0003.61
2022-06-11 07:18:00,,0824.4,5.00,0.00,29.3,28.3,00.0,38.2,31.2,15.6,0000.0,0016.29,0005.72,0003.63
2022-06-11 07:19:00,,0824.5,5.00,0.00,29.3,28.4,00.0,38.2,31.3,15.6,0000.0,0015.87,0005.70,0003.62
2022-06-11 07:20:00,,0824.5,5.00,0.00,29.3,28.4,00.0,38.2,31.3,15.5,0000.0,0015.17,0005.65,0003.62
2022-06-11 07:21:00,,0824.4,5.01,0.00,29.4,28.4,00.0,38.2,31.3,15.5,0000.0,0014.81,0005.59,0003.63
2022-06-11 07:22:00,,0824.4,5.01,0.00,29.4,28.5,00.0,38.2,31.3,15.5,0000.0,0014.98,0005.52,0003.61
2022-06-11 07:23:00,,0824.4,4.99,0.00,29.4,28.5,00.0,38.2,31.3,15.4,0000.0,0014.60,0005.49,0003.62
2022-06-11 07:24:00,,0824.5,4.99,0.00,29.4,28.5,00.0,38.2,31.4,15.2,0000.0,0014.83,0005.47,0003.63
2022-06-11 07:25:00,,0824.6,5.01,0.00,29.4,28.6,00.0,38.3,31.4,15.1,0000.0,0014.69,0005.44,0003.64
2022-06-11 07:26:00,,0824.4,5.00,0.00,29.5,28.6,00.0,38.3,31.4,16.0,0000.0,0015.96,0005.48,0003.63
2022-06-11 07:27:00,,0824.5,5.00,0.00,29.5,28.6,00.0,38.3,31.4,15.7,0000.0,0016.76,0005.47,0003.62
2022-06-11 07:28:00,,0824.5,4.99,0.00,29.5,28.7,00.0,38.3,31.4,15.8,0000.0,0016.50,0005.37,0003.61
2022-06-11 07:29:00,,0824.6,4.99,0.00,29.5,28.7,00.0,38.3,31.4,16.1,0000.0,0016.50,0005.35,0003.59
2022-06-11 07:30:00,,0824.5,5.00,0.00,29.5,28.7,00.0,38.3,31.5,15.9,0000.0,0016.12,0005.31,0003.59
2022-06-11 07:31:00,,0824.6,4.99,0.00,29.6,28.7,00.0,38.4,31.5,16.1,0000.0,0016.08,0005.30,0003.58
2022-06-11 07:32:00,,0824.5,5.00,0.00,29.6,28.7,00.0,38.4,31.5,16.3,0000.0,0015.66,0005.35,0003.57
2022-06-11 07:33:00,,0824.4,5.01,0.00,29.6,28.8,00.0,38.4,31.5,15.7,0000.0,0015.13,0005.33,0003.57
2022-06-11 07:34:00,,0824.5,4.99,0.00,29.6,28.8,00.0,38.4,31.5,15.3,0000.0,0014.75,0005.30,0003.56
2022-06-11 07:35:00,,0824.4,4.99,0.00,29.6,28.8,00.0,38.4,31.5,15.6,0000.0,0014.70,0005.34,0003.56
2022-06-11 07:36:00,,0824.4,5.00,0.00,29.6,28.8,00.0,38.4,31.5,15.7,0000.0,0014.60,0005.32,0003.56
2022-06-11 07:37:00,,0824.5,5.00,0.00,29.6,28.1,00.0,38.4,31.4,15.6,0000.0,0013.80,0005.24,0003.54
2022-06-11 07:38:00,,0824.4,5.02,0.00,29.5,27.5,00.0,38.3,31.2,15.2,0000.0,0013.03,0005.27,0003.54
2022-06-11 07:39:00,,0824.5,4.99,0.00,29.4,27.3,00.0,38.3,31.1,14.9,0000.0,0013.21,0005.32,0003.53
2022-06-11 07:40:00,,0824.4,5.00,0.00,29.3,27.3,00.0,38.3,31.0,15.2,0000.0,0012.98,0005.33,0003.52
2022-06-11 07:41:00,,0824.4,5.00,0.00,29.3,27.4,00.0,38.3,31.0,15.1,0000.0,0012.86,0005.41,0003.53
2022-06-11 07:42:00,,0824.4,5.00,0.00,29.3,27.5,00.0,38.3,31.0,15.2,0000.0,0012.87,0005.47,0003.54
2022-06-11 07:43:00,,0824.3,4.99,0.00,29.3,27.6,00.0,38.2,31.1,15.1,0000.0,0013.34,0005.48,0003.54
2022-06-11 07:44:00,,0824.3,5.00,0.00,29.3,27.7,00.0,38.2,31.1,15.1,0000.0,0013.64,0005.48,0003.52
2022-06-11 07:45:00,,0824.4,4.99,0.00,29.3,27.8,00.0,38.2,31.1,15.2,0000.0,0013.90,0005.48,0003.53
2022-06-11 07:46:00,,0824.3,5.00,0.00,29.3,27.9,00.0,38.2,31.1,15.5,0000.0,0013.64,0005.45,0003.51
2022-06-11 07:47:00,,0824.4,5.01,0.00,29.3,28.0,00.0,38.2,31.2,15.6,0000.0,0013.70,0005.43,0003.50
2022-06-11 07:48:00,,0824.4,4.99,0.00,29.3,28.1,00.0,38.2,31.2,15.7,0000.0,0013.37,0005.37,0003.49
2022-06-11 07:49:00,,0824.4,4.99,0.00,29.3,28.2,00.0,38.2,31.2,15.8,0000.0,0013.60,0005.33,0003.49
2022-06-11 07:50:00,,0824.4,5.01,0.00,29.3,28.2,00.0,38.2,31.2,15.8,0000.0,0013.58,0005.34,0003.51
2022-06-11 07:51:00,,0824.4,5.00,0.00,29.3,28.3,00.0,38.2,31.2,15.7,0000.0,0013.51,0005.35,0003.52
2022-06-11 07:52:00,,0824.4,5.00,0.00,29.4,28.3,00.0,38.2,31.3,15.7,0000.0,0013.51,0005.33,0003.52
2022-06-11 07:53:00,,0824.3,4.98,0.00,29.4,28.4,00.0,38.2,31.3,15.3,0000.0,0013.49,0005.23,0003.52
2022-06-11 07:54:00,,0824.4,5.00,0.00,29.4,28.4,00.0,38.2,31.3,15.1,0000.0,0013.34,0005.17,0003.52
2022-06-11 07:55:00,,0824.3,5.01,0.00,29.4,28.5,00.0,38.3,31.3,14.9,0000.0,0013.29,0005.23,0003.53
2022-06-11 07:56:00,,0824.3,5.00,0.00,29.4,28.5,00.0,38.3,31.3,14.7,0000.0,0013.31,0005.27,0003.53
2022-06-11 07:57:00,,0824.3,5.00,0.00,29.4,28.5,00.0,38.3,31.3,14.6,0000.0,0013.05,0005.22,0003.52
2022-06-11 07:58:00,,0824.3,4.99,0.00,29.5,28.6,00.0,38.3,31.4,14.6,0000.0,0013.49,0005.17,0003.51
2022-06-11 07:59:00,,0824.3,5.00,0.00,29.5,28.6,00.0,38.3,31.4,14.7,0000.0,0014.00,0005.25,0003.52
